Date String (YYYY-MM-DD hh:mm:ss) UTC,Instrument flags,Ambient pressure (hPa),Sample flow (lpm),Bypass flow (lpm),Sample temperature (°C),Ambient temperature (°C),ASC tube jacket temperature (°C),LED temperature (°C),Box temperature (°C),Sample RH (%),Span deviation,Mass concentration (μg/m³),Mass concentration (μg/m³),Mass concentration (μg/m³)
DateTimeUTC,F1_M11,P_M11,Q1_M11,Q2_M11,T1_M11,T2_M11,T3_M11,T4_M11,T5_M11,U1_M11,ZSPAN_M11,X0_M11,X2_M11,X1_M11
2021-09-11 09:00:00,,0829.0,5.00,0.00,29.8,28.9,00.0,38.8,31.6,11.0,0002.3,0015.06,0010.73,0010.18
2021-09-11 09:01:00,,0829.0,4.99,0.00,29.8,28.9,00.0,38.8,31.6,11.0,0002.2,0015.12,0010.74,0010.17
2021-09-11 09:02:00,,0828.9,5.02,0.00,29.8,27.5,00.0,38.8,31.3,11.1,0002.3,0015.66,0010.72,0010.15
2021-09-11 09:03:00,,0828.9,4.99,0.00,29.7,26.4,00.0,38.8,31.0,11.1,0002.1,0016.03,0010.73,0010.15
2021-09-11 09:04:00,,0828.9,4.99,0.00,29.6,26.6,00.0,38.7,31.0,11.2,0001.9,0016.15,0010.76,0010.17
2021-09-11 09:05:00,,0828.9,5.01,0.00,29.5,26.9,00.0,38.7,31.0,11.2,0001.9,0016.03,0010.79,0010.16
2021-09-11 09:06:00,,0828.9,5.01,0.00,29.5,27.3,00.0,38.7,31.1,11.2,0001.9,0015.65,0010.80,0010.16
2021-09-11 09:07:00,,0828.9,4.99,0.00,29.5,27.6,00.0,38.7,31.2,11.3,0001.8,0015.81,0010.85,0010.17
2021-09-11 09:08:00,,0828.9,4.99,0.00,29.5,27.9,00.0,38.7,31.2,11.2,0002.0,0016.01,0010.87,0010.17
2021-09-11 09:09:00,,0828.9,5.01,0.00,29.5,28.1,00.0,38.7,31.3,11.2,0002.2,0016.89,0010.81,0010.16
2021-09-11 09:10:00,,0828.9,4.99,0.00,29.6,28.3,00.0,38.6,31.3,11.2,0001.7,0016.98,0010.80,0010.16
2021-09-11 09:11:00,,0828.9,5.00,0.00,29.6,28.4,00.0,38.7,31.4,11.2,0002.0,0016.89,0010.80,0010.16
2021-09-11 09:12:00,,0828.9,4.99,0.00,29.6,28.5,00.0,38.7,31.4,11.2,0002.1,0016.78,0010.78,0010.16
2021-09-11 09:13:00,,0828.9,5.01,0.00,29.7,28.6,00.0,38.7,31.4,11.2,0001.8,0016.40,0010.78,0010.17
2021-09-11 09:14:00,,0828.8,5.00,0.00,29.7,28.7,00.0,38.7,31.5,11.3,0001.7,0016.40,0010.81,0010.18
2021-09-11 09:15:00,,0828.8,5.00,0.00,29.7,28.7,00.0,38.7,31.5,11.2,0001.7,0016.33,0010.81,0010.19
2021-09-11 09:16:00,,0828.8,5.01,0.00,29.8,28.8,00.0,38.7,31.6,11.1,0001.5,0016.65,0010.83,0010.20
2021-09-11 09:17:00,,0828.8,4.99,0.00,29.8,28.9,00.0,38.8,31.6,11.1,0001.5,0016.85,0010.84,0010.21
2021-09-11 09:18:00,,0828.9,5.01,0.00,29.8,28.4,00.0,38.8,31.5,11.0,0001.5,0017.35,0010.85,0010.23
2021-09-11 09:19:00,,0829.3,4.98,0.00,29.7,26.6,00.0,38.8,31.1,11.1,0001.3,0017.31,0010.84,0010.25
2021-09-11 09:20:00,,0829.2,5.00,0.00,29.6,26.3,00.0,38.7,31.0,11.1,0001.2,0016.46,0010.85,0010.26
2021-09-11 09:21:00,,0829.1,5.01,0.00,29.5,26.6,00.0,38.7,30.9,11.2,0001.3,0016.45,0010.89,0010.29
2021-09-11 09:22:00,,0828.9,4.99,0.00,29.5,27.0,00.0,38.7,31.0,11.3,0001.1,0016.57,0010.91,0010.31
2021-09-11 09:23:00,,0828.8,5.00,0.00,29.5,27.4,00.0,38.7,31.1,11.4,0001.4,0017.12,0011.00,0010.33
2021-09-11 09:24:00,,0828.8,5.01,0.00,29.5,27.7,00.0,38.6,31.2,11.4,0001.7,0017.97,0011.08,0010.35
2021-09-11 09:25:00,,0828.9,5.00,0.00,29.5,27.9,00.0,38.6,31.2,11.4,0001.6,0017.68,0011.07,0010.37
2021-09-11 09:26:00,,0828.9,4.99,0.00,29.5,28.1,00.0,38.6,31.3,11.3,0001.5,0017.69,0011.11,0010.39
2021-09-11 09:27:00,,0828.8,4.99,0.00,29.6,28.3,00.0,38.6,31.3,11.2,0001.6,0017.36,0011.09,0010.41
2021-09-11 09:28:00,,0828.8,5.01,0.00,29.6,28.4,00.0,38.6,31.4,11.1,0001.7,0017.81,0011.09,0010.42
2021-09-11 09:29:00,,0829.0,5.00,0.00,29.6,28.5,00.0,38.7,31.4,11.0,0001.5,0017.55,0011.09,0010.46
2021-09-11 09:30:00,,0829.0,5.00,0.00,29.7,28.6,00.0,38.7,31.5,11.7,0001.8,0017.68,0011.11,0010.47
2021-09-11 09:31:00,,0829.0,5.00,0.00,29.7,28.7,00.0,38.7,31.5,11.4,0002.1,0017.61,0011.15,0010.48
2021-09-11 09:32:00,,0829.0,5.00,0.00,29.7,28.8,00.0,38.7,31.5,11.3,0002.0,0017.29,0011.19,0010.50
2021-09-11 09:33:00,,0829.0,5.01,0.00,29.8,28.9,00.0,38.7,31.6,11.4,0002.0,0017.13,0011.20,0010.51
2021-09-11 09:34:00,,0829.0,5.00,0.00,29.8,28.9,00.0,38.8,31.6,11.3,0001.5,0016.70,0011.15,0010.51
2021-09-11 09:35:00,,0829.0,4.99,0.00,29.8,28.9,00.0,38.8,31.7,11.3,0001.4,0015.82,0011.10,0010.51
2021-09-11 09:36:00,,0829.0,5.00,0.00,29.8,27.7,00.0,38.8,31.3,11.3,0001.4,0015.72,0011.11,0010.51
2021-09-11 09:37:00,,0829.0,4.99,0.00,29.7,26.4,00.0,38.8,31.0,11.4,0001.2,0015.87,0011.13,0010.50
2021-09-11 09:38:00,,0829.0,5.01,0.00,29.6,26.5,00.0,38.8,31.0,11.2,0001.2,0017.18,0011.13,0010.50
2021-09-11 09:39:00,,0829.0,5.00,0.00,29.5,26.9,00.0,38.7,31.0,11.3,0001.1,0017.28,0011.15,0010.49
2021-09-11 09:40:00,,0829.0,5.00,0.00,29.5,27.2,00.0,38.7,31.1,11.3,0001.1,0017.48,0011.22,0010.48
2021-09-11 09:41:00,,0829.0,5.00,0.00,29.5,27.6,00.0,38.7,31.1,11.3,0000.7,0017.31,0011.22,0010.47
2021-09-11 09:42:00,,0829.0,4.99,0.00,29.5,27.8,00.0,38.7,31.2,11.2,0000.5,0017.39,0011.21,0010.45
2021-09-11 09:43:00,,0829.0,5.01,0.00,29.5,28.0,00.0,38.7,31.3,11.2,0000.6,0017.65,0011.20,0010.42
2021-09-11 09:44:00,,0829.0,4.98,0.00,29.6,28.2,00.0,38.7,31.3,11.2,0000.6,0019.24,0011.20,0010.40
2021-09-11 09:45:00,,0829.0,5.01,0.00,29.6,28.4,00.0,38.7,31.4,11.1,0000.4,0020.07,0011.19,0010.40
2021-09-11 09:46:00,,0829.0,4.99,0.00,29.6,28.5,00.0,38.7,31.4,11.1,0000.3,0020.09,0011.21,0010.40
2021-09-11 09:47:00,,0829.0,5.00,0.00,29.7,28.6,00.0,38.7,31.4,11.1,0000.3,0020.10,0011.18,0010.38
2021-09-11 09:48:00,,0829.0,5.00,0.00,29.7,28.6,00.0,38.7,31.5,11.2,0000.5,0020.33,0011.13,0010.34
2021-09-11 09:49:00,,0829.0,4.99,0.00,29.7,28.7,00.0,38.7,31.5,11.3,0000.8,0019.20,0011.08,0010.30
2021-09-11 09:50:00,,0829.0,5.01,0.00,29.8,28.8,00.0,38.7,31.5,11.3,0001.1,0018.30,0011.06,0010.27
2021-09-11 09:51:00,,0829.0,4.99,0.00,29.8,28.8,00.0,38.8,31.6,11.3,0001.4,0017.72,0010.94,0010.21
2021-09-11 09:52:00,,0829.1,5.00,0.00,29.8,28.9,00.0,38.8,31.6,11.3,0001.4,0017.70,0010.88,0010.18
2021-09-11 09:53:00,,0829.0,5.01,0.00,29.9,28.9,00.0,38.8,31.7,11.3,0001.4,0017.60,0010.84,0010.15
2021-09-11 09:54:00,,0829.1,5.00,0.00,29.8,28.0,00.0,38.8,31.4,11.3,0001.4,0017.41,0010.78,0010.12
2021-09-11 09:55:00,,0829.1,5.00,0.00,29.7,26.5,00.0,38.8,31.1,11.3,0001.4,0016.04,0010.73,0010.08
2021-09-11 09:56:00,,0829.1,5.00,0.00,29.6,26.5,00.0,38.8,31.1,11.4,0001.5,0015.64,0010.70,0010.02
2021-09-11 09:57:00,,0829.1,4.99,0.00,29.5,26.8,00.0,38.7,31.0,11.5,0001.7,0016.75,0010.66,0009.95
2021-09-11 09:58:00,,0829.1,5.01,0.00,29.5,27.2,00.0,38.7,31.1,11.5,0001.9,0016.76,0010.64,0009.91
2021-09-11 09:59:00,,0829.1,4.99,0.00,29.5,27.5,00.0,38.7,31.1,11.6,0002.2,0016.64,0010.65,0009.89
